Location: *
(47.6569°N, 7.4256°E)
Time: 18:04:34
(UTC+00:00)

Lacrosse 5 rocket - Pass Details

Date: 14 December 2019
Orbit: 465 x 632 km, 57.0° (Epoch: 26 January)

Event Time Altitude Azimuth Distance (km) Brightness Sun altitude
Rises 16:35:43 0° 262° (W) 2,812 6.6 -9.2°
Reaches altitude 10° 16:38:12 10° 272° (W) 1,884 5.2 -9.6°
Maximum altitude 16:42:05 33° 337° (NNW) 937 2.5 -10.2°
Enters shadow 16:45:23 12° 41° (NE) 1,646 3.2 -10.7°
